Overview Statistics Trail Chart Weather Telemetry Raw packets
 

This is the latest recevied weather packets stored in our database for station/object K4PAD. If no packets are shown the sender has not sent any weather packets the latest 10 day(s).

<< 1 2 3 4 >>
Time Temp. Humidity Pressure Rain* Wind** Luminosity Snow
1788615895 27.78° C 89% 1016.1 hPa 0 mm - 87 W/m² -
1788615594 27.78° C 88% 1016.2 hPa 0 mm - 96 W/m² -
1788615290 27.78° C 90% 1015.9 hPa 0 mm - 147 W/m² -
1788614989 27.78° C 90% 1016.2 hPa 0 mm - 143 W/m² -
1788614685 27.78° C 91% 1016 hPa 0 mm - 151 W/m² -
1788614379 27.22° C 92% 1016.2 hPa 0 mm - 460 W/m² -
1788614079 27.22° C 92% 1016.2 hPa 0 mm - 355 W/m² -
1788613770 26.67° C 92% 1016.1 hPa 0 mm - 148 W/m² -
1788613469 26.67° C 94% 1016.1 hPa 0 mm - 105 W/m² -
1788613169 26.67° C 95% 1016.3 hPa 0 mm - 194 W/m² -
1788612864 26.67° C 96% 1016.2 hPa 0 mm - 190 W/m² -
1788612560 26.67° C 97% 1016.2 hPa 0 mm - 153 W/m² -
1788612257 26.11° C 98% 1016.2 hPa 0 mm - 170 W/m² -
1788611956 26.11° C 98% 1016.1 hPa 0 mm - 104 W/m² -
1788611653 25.56° C 99% 1015.9 hPa 0 mm - 124 W/m² -
1788611348 25.56° C 98% 1016 hPa 0 mm - 107 W/m² -
1788611047 25° C 99% 1015.9 hPa 0 mm - 115 W/m² -
1788610743 25° C 99% 1015.8 hPa 0 mm - 78 W/m² -
1788610439 25° C 99% 1015.7 hPa 0 mm - 73 W/m² -
1788610138 25° C 99% 1015.6 hPa 0 mm - 53 W/m² -
1788609837 24.44° C 99% 1015.8 hPa 0 mm - 55 W/m² -
1788609533 24.44° C 99% 1015.5 hPa 0 mm - 48 W/m² -
1788609232 24.44° C 99% 1015.5 hPa 0 mm - 38 W/m² -
1788608927 24.44° C 99% 1015.3 hPa 0 mm - 34 W/m² -
1788608626 24.44° C 99% 1015.3 hPa 0 mm - 30 W/m² -

* Rain latest hour (hover to see other rain measurements)
** Current wind speed in m/s (hover to see current wind gust speed)